OpenBCM V1.13 (Linux)

Packet Radio Mailbox

DB0FHN

[JN59NK Nuernberg]

 Login: GUEST





  
LU9DCE > KEP      30.07.19 20:20l 240 Lines 11871 Bytes #999 (0) @ WW
BID : 29191_LU9DCE
Read: DJ6UX GUEST
Subj: TLE 30 07
Path: DB0FHN<OE2XZR<OE5XBR<OE1XAB<HG8LXL<XE1FH<LU9DCE
Sent: 190730/1800Z 29191@LU9DCE.TOR.BA.ARG.SOAM LinBPQ6.0.17

            __    _  _  ___  ____   ___  ____    ____  ____  ____
           (  )  / )( \/ _ \(    \ / __)(  __)  (  _ \(  _ \/ ___)
           / (_/\) \/ (\__  )) D (( (__  ) _)    ) _ ( ) _ (\___ \
           \____/\____/(___/(____/ \___)(____)  (____/(____/(____/
               ESTACION DE PACKET RADIO - BUENOS AIRES (GF05OM)
                   BOLETINES INFORMATIVOS PROGRAMADOS (BIP)
                  SLACKWARE LINUX - HELLOCODELINUX@GMAIL.COM

+----------------------------------------------------------------------------+
OSCAR 7
1  7530U 74089B   19211.53363992 -.00000051  00000-0 -38201-4 0  9993
2  7530 101.7467 178.7709 0011710 267.0114 208.2226 12.53639079 45762
OSCAR 11 (UoSAT 2)
1 14781U 84021B   19211.05812131  .00000041  00000-0  11152-4 0  9990
2 14781  97.6090 233.8159 0008551 173.6425 186.4899 14.83097534904891
OSCAR 19 (LUSAT)
1 20442U 90005G   19211.07658395 -.00000039  00000-0  20729-5 0  9991
2 20442  98.6500 153.0114 0012428  32.3381 327.8562 14.32929442542301
EYESAT A
1 22825U 93061C   19210.92014107 -.00000012 +00000-0 +13477-4 0  9995
2 22825 098.9051 200.5019 0007450 234.9026 125.1457 14.30063184347573
ITAMSAT
1 22826U 93061D   19210.91220651 -.00000020 +00000-0 +10287-4 0  9993
2 22826 098.8992 200.4800 0008096 222.8191 137.2360 14.30396868347799
RADIO ROSTO
1 23439U 94085A   19210.93453914 -.00000020 +00000-0 +65022-3 0  9999
2 23439 064.8176 049.4296 0146163 105.1869 256.5271 11.27568622012540
JAS 2
1 24278U 96046B   19210.88561220 -.00000019 +00000-0 +14303-4 0  9999
2 24278 098.5429 358.7155 0351159 133.1022 230.0072 13.53093027133129
TECHSAT 1B
1 25397U 98043D   19211.43662917 -.00000039  00000-0  22395-5 0  9991
2 25397  98.6899 151.0785 0000237 329.1253  30.9911 14.23668197 93812
ISS (ZARYA)
1 25544U 98067A   19211.36259221  .00012654  00000-0  22100-3 0  9990
2 25544  51.6427 147.0650 0006352 196.3577 310.0345 15.51042552181954
PCSAT
1 26931U 01043C   19211.51911695 -.00000042  00000-0  15608-4 0  9991
2 26931  67.0500 255.7460 0007315 275.7955  84.2312 14.30548019930957
SAUDISAT 1C
1 27607U 02058C   19211.49916774 -.00000037  00000-0  15727-4 0  9995
2 27607  64.5548 281.7761 0079829 248.4790 110.7789 14.75561388893200
CUTE-1
1 27844U 03031E   19211.51365493  .00000029  00000-0  32615-4 0  9994
2 27844  98.6837 219.1011 0008571 270.5454  89.4742 14.22187232834237
CUBESAT XI 4
1 27848U 03031J   19210.95471355 +.00000028 +00000-0 +32645-4 0  9992
2 27848 098.6913 219.0595 0008531 285.6077 074.4159 14.21781374833978
MOZHAYETS 4
1 27939U 03042A   19211.38756995 -.00000011  00000-0  66721-5 0  9995
2 27939  98.0450 346.4029 0011867 298.6542  61.3470 14.66792281846651
CUBESAT XI 5
1 28895U 05043F   19210.93586097 +.00000050 +00000-0 +18542-4 0  9993
2 28895 097.9646 352.2657 0015974 217.5235 142.4854 14.63677999733288
CUTE-1.7+APD II
1 32785U 08021C   19210.89848289  .00000112  00000-0  17641-4 0  9992
2 32785  97.5503 208.6711 0014423 122.5904 237.6708 14.88324641609816
DELFI C3
1 32789U 08021G   19211.18410605  .00000310  00000-0  24731-4 0  9994
2 32789  97.4616 259.5920 0011730 351.9390   8.1647 15.07020905613216
SEEDS
1 32791U 08021J   19210.71333026 +.00000145 +00000-0 +20075-4 0  9999
2 32791 097.5280 214.5093 0014996 100.1823 260.1088 14.90841085610140
YUBELEINY
1 32953U 08025A   19210.77187229  .00000020  00000-0  75656-4 0  9998
2 32953  82.5032 119.2227 0020327  40.8462 319.4137 12.43090808507416
PRISM (HITOMI)
1 33493U 09002B   19210.77887028 +.00000181 +00000-0 +21451-4 0  9990
2 33493 098.1204 133.2924 0016129 049.9970 310.2663 14.96682315571299
KKS-1 (KISEKI)
1 33499U 09002H   19210.90735526 +.00000075 +00000-0 +19026-4 0  9993
2 33499 098.3482 050.9243 0010486 077.1603 283.0776 14.75451082564870
SWISSCUBE
1 35932U 09051B   19211.50867343  .00000062  00000-0  25157-4 0  9999
2 35932  98.5918  18.7135 0008414  44.7007 315.4867 14.56295791522864
BEESAT
1 35933U 09051C   19210.89077594 +.00000049 +00000-0 +22102-4 0  9994
2 35933 098.5941 019.8540 0006852 059.4577 300.7295 14.56383447522804
ITUPSAT 1
1 35935U 09051E   19211.45342406  .00000041  00000-0  20722-4 0  9994
2 35935  98.6052  20.6686 0009081  53.7453 306.4581 14.55542086522714
XIWANG-1 (HOPE-1)
1 36122U 09072B   19210.70223984 -.00000029 +00000-0 +34962-4 0  9990
2 36122 100.0732 211.1536 0006939 250.7105 109.3259 13.16350553462277
TISAT 1
1 36799U 10035E   19211.42153313  .00000139  00000-0  20125-4 0  9996
2 36799  98.1607   4.9694 0011163 313.7728  46.2565 14.91124567490980
JUGNU
1 37839U 11058B   19210.92508067 +.00000272 +00000-0 +31879-5 0  9999
2 37839 019.9619 084.7311 0018932 061.7864 047.8156 14.12654571402986
SRMSAT
1 37841U 11058D   19210.95408584 +.00000275 +00000-0 +57505-5 0  9995
2 37841 019.9717 142.1836 0011707 289.8697 136.0685 14.10635570402433
M-CUBED/EXP-1 PRIME
1 37855U 11061F   19210.80533820 +.00000509 +00000-0 +33741-4 0  9995
2 37855 101.7109 127.5050 0173303 315.0212 043.7070 15.05503887422494
HORYU 2
1 38340U 12025D   19210.93591958 +.00000093 +00000-0 +21686-4 0  9999
2 38340 098.3263 250.7582 0011354 359.9028 000.2176 14.75732101376834
STRAND 1
1 39090U 13009E   19210.64333882 -.00000003 +00000-0 +14262-4 0  9997
2 39090 098.4853 055.9079 0009449 160.0132 200.1425 14.35091177336244
SOMP
1 39134U 13015E   19211.19983880  .00000479  00000-0  31279-4 0  9996
2 39134  64.8619 245.9544 0033528 296.2450  63.5233 15.20216668346909
BEESAT 3
1 39135U 13015F   19211.52517466  .00000320  00000-0  25753-4 0  9992
2 39135  64.8688 263.7881 0027030 312.7650  47.1202 15.17519027346595
BEESAT 2
1 39136U 13015G   19210.65498711 +.00000109 +00000-0 +15531-4 0  9995
2 39136 064.8694 270.5386 0021210 300.1253 059.7770 15.16943181345996
CUBEBUG 1
1 39153U 13018D   19210.92098041 +.00000061 +00000-0 +14930-4 0  9998
2 39153 097.9800 308.8172 0018256 067.3159 292.9981 14.80577978337838
ZACUBE
1 39417U 13066B   19211.52322600  .00000114  00000-0  20855-4 0  9994
2 39417  97.5619 222.6737 0057358 256.5408 102.9409 14.81129188307233
TRITON 1
1 39427U 13066M   19210.90182965 +.00000162 +00000-0 +33614-4 0  9994
2 39427 097.6791 185.7387 0114781 034.1816 326.6711 14.67856368304197
GOMX 1
1 39430U 13066Q   19211.17591414  .00000111  00000-0  28642-4 0  9990
2 39430  97.7493 165.0033 0152137 123.1109 238.4804 14.59264497302650
HUMSAT D
1 39433U 13066T   19211.12191315  .00000141  00000-0  19052-4 0  9992
2 39433  97.5508 256.9290 0031406 159.7172 200.5303 14.92214635309256
CUBEBUG 2
1 39440U 13066AA  19210.90463841 +.00000104 +00000-0 +21634-4 0  9999
2 39440 097.6032 206.9104 0079078 311.9201 047.5284 14.75867142304854
FUNCUBE 1
1 39444U 13066AE  19210.96052114 +.00000158 +00000-0 +25853-4 0  9992
2 39444 097.5598 224.1284 0056524 251.9324 107.5727 14.81950330305450
UWE-3
1 39446U 13066AG  19210.90586940 +.00000112 +00000-0 +21674-4 0  9994
2 39446 097.5815 213.9797 0068484 286.0012 073.3663 14.78401580304766
SPROUT
1 39770U 14029E   19211.34180690  .00000439  00000-0  54705-4 0  9998
2 39770  97.8845 314.3665 0008693 316.3055  43.7461 14.87373480281029
UNISAT 6
1 40012U 14033C   19210.94946362 +.00000106 +00000-0 +23271-4 0  9990
2 40012 097.7527 075.7729 0057577 326.1216 033.6320 14.73989450274768
DUCHIFAT 1
1 40021U 14033M   19211.36389652  .00000112  00000-0  17349-4 0  9996
2 40021  97.9231 136.0957 0011390 274.2197  85.7719 14.90649461277756
QB50P1
1 40025U 14033R   19210.76102365 +.00000098 +00000-0 +16414-4 0  9992
2 40025 097.9046 130.3785 0011013 287.1164 072.8847 14.88958402277438
CHUBUSAT 1
1 40300U 14070C   19211.26584935  .00000288  00000-0  15551-4 0  9994
2 40300  97.3250 284.3946 0018446 271.3057 132.1241 15.22115973262346
NUDT-PHONESAT
1 40900U 15049B   19210.77638465  .00001063  00000-0  48299-4 0  9997
2 40900  97.4371 219.7060 0014215  45.8726  40.0825 15.22878394213910
ZDPS 2A
1 40901U 15049C   19211.20731777  .00000530  00000-0  29517-4 0  9997
2 40901  97.4599 216.4303 0015016  61.8015   2.4733 15.17763138213537
ZDPS 2B
1 40902U 15049D   19211.57647648  .00000458  00000-0  26071-4 0  9992
2 40902  97.4544 214.2650 0015063  58.2685  56.7394 15.17591168213564
XW-2A
1 40903U 15049E   19211.58408089  .00000991  00000-0  25272-4 0  9992
2 40903  97.3349 254.5787 0013623   1.5664 152.1862 15.41945596216708
KAITUO 1A
1 40904U 15049F   19211.20820962  .00000414  00000-0  25372-4 0  9991
2 40904  97.4674 212.5053 0016298  65.8947  62.7229 15.15384670213283
OBJECT G
1 40905U 15049G   19211.23839297  .00000173  00000-0  12972-4 0  9990
2 40905  97.4713 210.0456 0017111  62.2803 352.9774 15.14309338213168
XW-2C
1 40906U 15049H   19211.33006038  .00000498  00000-0  29554-4 0  9995
2 40906  97.4682 212.7186 0016346  57.6927  56.4914 15.15702319213302
XW-2D
1 40907U 15049J   19211.50130993  .00000144  00000-0  10946-4 0  9996
2 40907  97.4655 212.5647 0015642  55.1983  63.2000 15.15889456213340
LILACSAT 2
1 40908U 15049K   19210.90145598 -.00000086  00000-0 -11607-5 0  9990
2 40908  97.4788 210.7769 0017411  62.7181   0.4781 15.13815521213049
XW-2F
1 40910U 15049M   19210.83105416  .00000401  00000-0  23409-4 0  9991
2 40910  97.4627 213.9523 0016238  50.8189  72.2363 15.17335776213258
XW-2B
1 40911U 15049N   19211.33706630  .00000526  00000-0  30923-4 0  9990
2 40911  97.4681 213.0586 0015693  56.2212  57.8709 15.15822150213214
KAITUO 1B
1 40912U 15049P   19211.32472718  .00000595  00000-0  31080-4 0  9998
2 40912  97.4495 218.1367 0016041  32.5173  82.1046 15.19654920213635
TIANWANG 1C (TW-1C)
1 40926U 15051B   19211.39313447  .00006681  00000-0  96216-4 0  9990
2 40926  97.1331 257.5233 0007230 203.3326 280.2555 15.56341490216649
